Weather History for LTAF - December, 2013

Change the Weather History Date:

Monday, December 23, 2013

  Actual Average Record
Temperature  
Mean Temperature 50 °F -  
Max Temperature 69 °F 58 °F - ()
Min Temperature 30 °F 39 °F - ()
Degree Days  
Heating Degree Days 16    
Moisture  
Dew Point 24 °F    
Average Humidity 45    
Maximum Humidity 81    
Minimum Humidity 6    
Precipitation  
Precipitation 0.00 in 0.16 in - ()
Sea Level Pressure  
Sea Level Pressure 30.33 in    
Wind  
Wind Speed 4 mph ()    
Max Wind Speed 9 mph    
Max Gust Speed -    
Visibility 3.2 miles    
Events      
T = Trace of Precipitation, MM = Missing Value Source: Averaged Metar Reports

Daily Weather History Graph

Daily Weather History Graph

Search for Another Location

Airport or City:

Trip Planner

Search our weather history database for the weather conditions in past years. The results will help you decide how hot, cold, wet, or windy it might be!

Date:

Astronomy

Dec. 23, 2013 Rise Set
Actual Time 6:49 AM EET 4:26 PM EET
Civil Twilight 6:20 AM EET 4:55 PM EET
Nautical Twilight 5:47 AM EET 5:28 PM EET
Astronomical Twilight 5:15 AM EET 5:59 PM EET
Moon 10:08 PM EET (12/23) 10:11 AM EET (12/23)
Length of Visible Light 10h 35m
Length of Day
9h 37m
Waning Gibbous, 71% of the Moon is Illuminated
Dec 23
Waning Gibbous
Dec 25
Last Quarter
Jan 1
New
Jan 8
First Quarter
Jan 16
Full

Hourly Weather History & Observations

Time (EET) Temp. Windchill Dew Point Humidity Pressure Visibility Wind Dir Wind Speed Gust Speed Precip Events Conditions
12:20 AM 41.0 °F 39.0 °F 30.2 °F 65% 30.33 in 3.1 mi NNE 3.5 mph - N/A   Haze
12:50 AM 39.2 °F 33.6 °F 28.4 °F 65% 30.30 in 3.1 mi NNE 8.1 mph - N/A   Haze
1:20 AM 39.2 °F 34.2 °F 28.4 °F 65% 30.30 in 3.1 mi NNE 6.9 mph - N/A   Haze
1:50 AM 39.2 °F 33.0 °F 30.2 °F 70% 30.30 in 3.1 mi NE 9.2 mph - N/A   Haze
2:00 AM 39 °F - 30 °F 60% 30.33 in 3 mi NE 9.2 mph - -   Haze
2:20 AM 37.4 °F 31.4 °F 28.4 °F 70% 30.30 in 3.1 mi NNE 8.1 mph - N/A   Haze
2:50 AM 37.4 °F 33.8 °F 28.4 °F 70% 30.30 in 3.1 mi NE 4.6 mph - N/A   Haze
3:20 AM 37.4 °F 34.9 °F 28.4 °F 70% 30.30 in 3.1 mi NNE 3.5 mph - N/A   Haze
3:50 AM 37.4 °F 33.8 °F 28.4 °F 70% 30.30 in 3.1 mi North 4.6 mph - N/A   Haze
4:20 AM 35.6 °F - 24.8 °F 65% 30.30 in 3.1 mi Variable 1.2 mph - N/A   Haze
4:50 AM 35.6 °F - 28.4 °F 75% 30.30 in 3.1 mi Calm Calm - N/A   Mist
5:00 AM 35 °F - 27 °F 64% 30.32 in 3 mi Calm Calm - -   Mist
5:20 AM 33.8 °F - 26.6 °F 75% 30.33 in 3.1 mi Variable 1.2 mph - N/A   Mist
5:50 AM 32.0 °F - 26.6 °F 80% 30.33 in 3.1 mi Variable 2.3 mph - N/A   Mist
6:20 AM 32.0 °F - 26.6 °F 80% 30.33 in 3.1 mi Calm Calm - N/A   Mist
6:50 AM 33.8 °F - 26.6 °F 75% 30.33 in 3.1 mi Variable 2.3 mph - N/A   Mist
7:20 AM 33.8 °F - 28.4 °F 81% 30.33 in 3.1 mi Variable 2.3 mph - N/A   Mist
7:50 AM 37.4 °F - 30.2 °F 75% 30.33 in 3.1 mi Calm Calm - N/A   Mist
8:00 AM 38 °F - 30 °F 63% 30.35 in 3 mi Calm Calm - -   Mist
8:20 AM 44.6 °F - 30.2 °F 57% 30.36 in 3.1 mi Calm Calm - N/A   Haze
8:50 AM 46.4 °F - 32.0 °F 57% 30.36 in 3.1 mi Variable 1.2 mph - N/A   Haze
9:20 AM 50.0 °F - 28.4 °F 43% 30.36 in - Variable 4.6 mph - N/A   Clear
9:50 AM 53.6 °F - 26.6 °F 35% 30.36 in - ENE 4.6 mph - N/A   Clear
10:20 AM 57.2 °F - 21.2 °F 25% 30.36 in - NNE 4.6 mph - N/A   Clear
10:50 AM 59.0 °F - 21.2 °F 23% 30.33 in - ENE 3.5 mph - N/A   Clear
11:00 AM 59 °F - 18 °F 11% 30.35 in 6 mi ENE 3.5 mph - -  
11:20 AM 62.6 °F - 14.0 °F 15% 30.33 in - NNE 3.5 mph - N/A   Clear
11:50 AM 64.4 °F - 15.8 °F 15% 30.30 in - Variable 2.3 mph - N/A   Clear
12:20 PM 66.2 °F - 15.8 °F 14% 30.30 in - Variable 2.3 mph - N/A   Clear
12:50 PM 66.2 °F - 14.0 °F 13% 30.30 in - Variable 2.3 mph - N/A   Clear
1:20 PM 68.0 °F - 17.6 °F 15% 30.30 in - Variable 1.2 mph - N/A   Clear
1:50 PM 68.0 °F - 17.6 °F 15% 30.30 in - Variable 2.3 mph - N/A   Clear
2:00 PM 68 °F - 17 °F 6% 30.30 in 6 mi WNW 2.3 mph - -  
2:20 PM 69.8 °F - 17.6 °F 14% 30.30 in - Variable 1.2 mph - N/A   Clear
2:50 PM 68.0 °F - 14.0 °F 12% 30.30 in - Variable 2.3 mph - N/A   Clear
3:20 PM 68.0 °F - 15.8 °F 13% 30.30 in - Variable 1.2 mph - N/A   Clear
3:50 PM 64.4 °F - 14.0 °F 14% 30.30 in - WSW 3.5 mph - N/A   Clear
4:20 PM 62.6 °F - 19.4 °F 19% 30.30 in 3.1 mi Variable 2.3 mph - N/A   Haze
4:50 PM 57.2 °F - 19.4 °F 23% 30.30 in 3.1 mi SW 4.6 mph - N/A   Haze
5:00 PM 56 °F - 20 °F 14% 30.32 in 3 mi SW 4.6 mph - -   Haze
5:20 PM 53.6 °F - 21.2 °F 28% 30.33 in 3.1 mi WSW 4.6 mph - N/A   Haze
5:50 PM 55.4 °F - 23.0 °F 29% 30.33 in 3.1 mi West 4.6 mph - N/A   Haze
6:20 PM 51.8 °F - 24.8 °F 35% 30.33 in 3.1 mi Calm Calm - N/A   Haze
6:50 PM 46.4 °F - 24.8 °F 43% 30.33 in 3.1 mi Calm Calm - N/A   Haze
7:20 PM 46.4 °F 45.2 °F 24.8 °F 43% 30.33 in 3.1 mi NW 3.5 mph - N/A   Haze
7:50 PM 46.4 °F 45.2 °F 26.6 °F 46% 30.36 in 3.1 mi NNW 3.5 mph - N/A   Haze
8:00 PM 46 °F - 25 °F 31% 30.37 in 3 mi NNW 3.5 mph - -   Haze
8:20 PM 44.6 °F 43.1 °F 26.6 °F 49% 30.36 in 3.1 mi NE 3.5 mph - N/A   Haze
8:50 PM 44.6 °F 43.1 °F 30.2 °F 57% 30.36 in 3.1 mi NNE 3.5 mph - N/A   Haze
9:20 PM 42.8 °F 41.1 °F 28.4 °F 57% 30.36 in 3.1 mi NE 3.5 mph - N/A   Haze
9:50 PM 42.8 °F 40.1 °F 28.4 °F 57% 30.36 in 3.1 mi NNE 4.6 mph - N/A   Haze
10:20 PM 42.8 °F 38.6 °F 26.6 °F 53% 30.36 in 3.1 mi NNE 6.9 mph - N/A   Haze
10:50 PM 41.0 °F 37.1 °F 26.6 °F 57% 30.36 in 3.1 mi NE 5.8 mph - N/A   Haze
11:00 PM 42 °F - 27 °F 43% 30.37 in 3 mi NE 5.8 mph - -   Haze
11:20 PM 42.8 °F 38.6 °F 26.6 °F 53% 30.36 in 3.1 mi NNE 6.9 mph - N/A   Haze
11:50 PM 41.0 °F - 26.6 °F 57% 30.36 in 3.1 mi Variable 2.3 mph - N/A   Haze